Weather History for KGRF - February, 2012

Change the Weather History Date:

Tuesday, February 7, 2012

  Actual Average Record
Temperature  
Mean Temperature 43 °F -  
Max Temperature 58 °F 47 °F 59 °F (1998)
Min Temperature 28 °F 31 °F 15 °F (2014)
Degree Days  
Heating Degree Days 22    
Moisture  
Dew Point 30 °F    
Average Humidity 61    
Maximum Humidity 84    
Minimum Humidity 31    
Precipitation  
Precipitation 0.03 in - - ()
Sea Level Pressure  
Sea Level Pressure 29.90 in    
Wind  
Wind Speed 3 mph (SE)    
Max Wind Speed 8 mph    
Max Gust Speed -    
Visibility 10 miles    
Events      
Averages and records for this station are not official NWS values.
T = Trace of Precipitation, MM = Missing Value Source: NWS Daily Summary

Daily Weather History Graph

Daily Weather History Graph

Search for Another Location

Airport or City:

Trip Planner

Search our weather history database for the weather conditions in past years. The results will help you decide how hot, cold, wet, or windy it might be!

Date:

Astronomy

Feb. 07, 2012 Rise Set
Actual Time 7:27 AM PST 5:21 PM PST
Civil Twilight 6:55 AM PST 5:53 PM PST
Nautical Twilight 6:19 AM PST 6:29 PM PST
Astronomical Twilight 5:44 AM PST 7:05 PM PST
Moon 5:43 PM PST (2/7) 6:57 AM PST (2/7)
Length of Visible Light 10h 58m
Length of Day
9h 53m
Full, 100% of the Moon is Illuminated
Feb 7
Full
Feb 7
Full
Feb 14
Last Quarter
Feb 21
New
Feb 29
First Quarter

Hourly Weather History & Observations

Time (PST) Temp. Windchill Dew Point Humidity Pressure Visibility Wind Dir Wind Speed Gust Speed Precip Events Conditions
12:55 AM 30.4 °F 25.6 °F 25.7 °F 83% 29.88 in 10.0 mi SE 4.6 mph - N/A   Clear
1:55 AM 30.6 °F 27.1 °F 24.6 °F 79% 29.88 in 10.0 mi Variable 3.5 mph - N/A   Clear
2:55 AM 32.5 °F 29.3 °F 25.5 °F 75% 29.87 in 10.0 mi NE 3.5 mph - N/A   Clear
3:55 AM 30.2 °F - 25.0 °F 81% 29.87 in 10.0 mi Calm Calm - N/A   Clear
4:55 AM 30.4 °F - 25.2 °F 81% 29.86 in 10.0 mi Calm Calm - N/A   Clear
5:55 AM 29.5 °F - 24.1 °F 80% 29.86 in 10.0 mi Calm Calm - N/A   Clear
6:55 AM 28.9 °F - 24.8 °F 84% 29.86 in 10.0 mi Calm Calm - N/A   Clear
7:55 AM 30.0 °F - 25.0 °F 82% 29.86 in 10.0 mi Calm Calm - N/A   Clear
8:55 AM 34.2 °F - 28.9 °F 81% 29.88 in 10.0 mi Calm Calm - N/A   Clear
9:55 AM 47.1 °F - 29.3 °F 50% 29.88 in 10.0 mi Calm Calm - N/A   Clear
10:55 AM 51.6 °F - 28.2 °F 41% 29.87 in 10.0 mi NE 5.8 mph - N/A   Clear
11:55 AM 57.2 °F - 26.8 °F 31% 29.86 in 10.0 mi NNE 8.1 mph - N/A   Clear
12:55 PM 57.4 °F - 27.7 °F 32% 29.86 in 10.0 mi WNW 5.8 mph - N/A   Clear
1:55 PM 58.5 °F - 28.8 °F 32% 29.87 in 10.0 mi West 5.8 mph - N/A   Partly Cloudy
2:55 PM 57.6 °F - 28.6 °F 33% 29.88 in 10.0 mi West 6.9 mph - N/A   Partly Cloudy
3:55 PM 56.7 °F - 28.2 °F 34% 29.89 in 10.0 mi WSW 8.1 mph - N/A   Mostly Cloudy
4:55 PM 54.3 °F - 30.6 °F 40% 29.91 in 10.0 mi Calm Calm - N/A   Overcast
5:55 PM 51.8 °F - 31.8 °F 47% 29.93 in 10.0 mi SE 4.6 mph - N/A   Clear
6:20 PM 51.8 °F - 32.0 °F 47% 29.91 in 10.0 mi SSE 2.3 mph - N/A   Mostly Cloudy
6:55 PM 51.8 °F - 33.6 °F 50% 29.94 in 10.0 mi South 5.8 mph - N/A   Mostly Cloudy
7:55 PM 49.1 °F - 37.6 °F 64% 29.96 in 10.0 mi ESE 5.8 mph - N/A   Partly Cloudy
8:55 PM 49.1 °F - 36.0 °F 61% 29.98 in 10.0 mi ESE 8.1 mph - N/A   Mostly Cloudy
9:55 PM 46.4 °F 44.3 °F 39.6 °F 77% 30.00 in 10.0 mi ESE 4.6 mph - 0.01 in   Overcast
10:55 PM 45.1 °F 42.8 °F 40.1 °F 82% 30.01 in 10.0 mi Variable 4.6 mph - 0.02 in   Overcast
11:55 PM 45.0 °F - 40.5 °F 84% 30.03 in 10.0 mi Calm Calm - N/A   Overcast